EHI
0 0 0 0 0 0 1 1 1 2 2 3 3 2 1 0 0 1 1 2 1 1 2 2 1 0 0 0 0 1 2 2 1 0 0 0 0 0 0 0 0 1 1
0 0 0 0 0 0 1 1 1 2 2 2 2 1 0 0 0 1 1 1 1 2 2 1 0 0 0 0 0 1 2 2 0 0 0 0 0 0 0 0 0 1 1
0 0 0 0 0 0 0 1 2 2 1 0 0 0 0 0 0 0 0 0 1 1 1 1 1 0 0 0 0 1 2 2 1 0 0 0 0 0 0 0 0 1 1
0 0 0 0 0 0 0 1 2 3 1 0 0 0 0 0 0 0 0 0 0 0 1 2 2 1 0 0 0 2 3 2 1 0 0 0 0 0 0 0 0 0 0
0 0 0 0 0 0 0 1 2 3 2 1 0 0 0 0 0 0 0 0 0 0 1 2 2 1 0 0 0 1 2 2 1 1 0 0 0 0 0 0 0 0 0
0 0 1 1 0 0 0 0 1 2 3 2 1 0 0 0 0 0 0 0 0 0 1 1 1 0 0 0 0 0 1 1 0 0 0 0 0 0 1 0 0 0 0
0 0 2 3 2 1 0 0 0 1 2 3 2 1 0 0 0 0 0 0 0 0 1 0 0 0 0 0 0 0 0 0 0 0 0 0 0 0 0 0 0 0 0
0 0 2 4 3 2 1 0 0 0 1 2 2 2 1 1 0 0 0 0 0 0 0 0 0 0 0 1 1 0 0 0 0 0 0 0 1 1 0 1 1 1 0
0 0 1 2 2 1 1 0 0 0 0 1 1 2 2 2 1 0 0 0 0 0 0 0 0 0 1 2 1 0 0 0 0 0 0 0 1 1 1 1 2 2 1
0 0 0 0 0 0 0 0 0 0 0 0 0 1 1 1 1 0 0 0 0 0 0 0 0 0 1 2 1 0 0 0 0 0 0 0 1 1 1 1 2 2 1
0 0 0 0 0 0 0 0 0 0 0 0 0 0 0 0 0 0 0 0 0 0 0 0 0 0 0 1 1 0 0 0 0 1 1 1 0 0 0 0 1 1 0
0 0 0 0 0 0 0 0 0 0 0 0 0 0 0 0 0 0 0 0 0 0 0 0 0 0 0 0 0 0 0 0 0 1 2 2 1 0 0 0 0 1 1
0 0 0 0 0 0 0 0 0 0 0 0 0 0 1 1 0 0 0 0 0 0 0 0 0 0 0 0 0 0 0 0 0 0 1 2 2 1 0 1 1 2 2
1 0 0 0 0 0 0 0 0 0 0 0 0 1 2 2 1 0 1 1 1 0 0 1 0 0 0 0 0 0 0 0 0 0 1 2 3 2 2 3 3 4 4
2 1 0 0 0 0 0 0 0 0 0 0 0 1 2 3 2 2 2 2 2 1 0 0 0 0 0 0 0 0 0 0 0 0 1 4 6 5 3 4 4 4 5
2 1 0 0 0 0 0 1 0 0 0 0 0 1 2 3 3 3 3 3 2 1 0 0 0 0 0 0 0 0 0 0 0 0 1 5 7 6 4 2 2 3 3
1 1 0 0 0 0 1 1 0 0 0 0 0 1 2 3 3 3 3 2 2 1 0 0 0 0 0 0 0 0 0 0 0 1 2 4 5 4 3 2 1 1 1
4 3 1 0 0 1 2 2 1 1 0 0 0 0 1 2 1 1 1 1 1 0 0 0 0 0 0 0 0 0 0 0 0 1 2 3 2 1 2 3 2 1 0
7 6 3 1 1 2 3 3 3 2 1 1 0 0 1 1 0 0 0 0 0 0 0 0 0 0 0 0 0 0 0 1 0 1 1 1 1 1 2 3 3 1 1
7 7 4 2 3 4 4 4 4 4 3 3 2 1 1 0 0 0 0 0 0 0 0 0 0 0 0 0 0 0 0 0 0 0 0 0 0 0 1 2 2 2 2
6 6 5 3 3 4 5 6 6 6 5 5 5 3 1 0 0 0 0 0 0 0 0 0 0 0 0 0 0 0 0 0 0 0 0 0 0 0 0 1 1 2 2
7 7 5 4 3 4 5 7 8 7 6 5 5 4 3 1 0 0 0 0 0 0 0 0 0 0 0 0 0 0 0 0 0 0 0 0 0 0 0 0 1 1 1
8 6 5 5 5 4 5 7 8 7 5 4 4 4 4 3 1 1 1 1 0 1 1 0 0 0 0 0 0 0 0 0 0 1 0 0 0 0 0 0 0 0 0
6 5 5 7 7 6 6 6 6 5 4 4 4 4 5 4 3 3 3 2 2 3 3 2 1 1 1 1 0 1 1 1 1 1 0 0 0 0 0 0 0 0 1
4 3 5 8 9 8 8 6 5 5 4 4 5 7 6 5 4 5 4 3 4 5 5 4 4 4 4 2 2 3 4 3 3 2 1 1 0 1 2 1 0 1 2
3 3 5 9 10 9 9 7 6 6 5 5 7 8 7 6 6 5 4 4 4 4 5 5 6 6 5 3 3 5 6 5 4 3 2 2 1 3 5 3 1 2 3
Wind_Speed
5 7 8 7 8 9 9 9 10 11 12 12 12 12 13 13 13 14 14 14 14 14 14 15 15 15 15 15 15 14 14 14 13 13 13 13 12 13 12 12 11 11 14
5 8 8 6 8 9 9 10 10 11 12 13 13 13 13 13 14 14 14 14 14 13 13 13 14 14 14 14 14 14 13 13 13 12 12 12 12 11 11 9 6 10 13
5 7 8 7 8 9 10 11 11 12 12 12 13 13 12 12 13 13 13 13 12 12 12 12 13 13 13 13 14 14 13 12 12 11 11 10 11 11 10 10 10 12 12
6 7 9 8 8 8 9 10 11 11 12 12 12 12 12 11 11 12 12 12 12 11 11 11 12 13 13 13 13 13 13 12 11 9 7 8 10 12 10 11 11 11 11
7 7 10 8 8 8 9 10 10 11 11 11 12 11 11 11 11 11 11 11 11 10 10 11 12 12 12 12 12 12 12 11 9 6 7 7 8 11 11 11 11 11 10
7 8 11 8 8 8 9 10 10 10 10 10 11 11 11 10 10 10 10 10 10 9 9 10 11 11 11 11 11 11 11 10 8 6 6 6 8 10 11 11 11 10 10
7 8 11 9 8 9 9 9 9 10 10 9 10 10 10 10 10 9 9 10 10 9 9 10 11 10 10 10 10 10 9 7 4 6 6 6 8 10 10 10 9 9 9
7 8 11 11 9 9 8 8 8 9 9 9 9 10 10 10 9 9 9 9 9 9 9 10 10 9 9 9 9 9 7 5 6 6 5 6 9 8 9 9 8 8 9
7 7 7 9 10 9 8 8 8 8 8 8 9 9 9 9 8 8 9 9 8 8 8 8 9 8 8 8 8 8 6 4 3 4 5 5 9 8 8 9 9 8 8
6 7 6 6 7 7 8 8 7 7 7 7 8 8 8 8 9 8 8 9 8 8 7 7 7 7 7 6 6 6 6 6 4 5 4 7 9 8 8 8 8 8 8
6 5 6 6 5 5 6 8 7 8 7 6 7 7 5 5 6 6 9 8 7 7 7 7 6 6 6 7 6 5 6 3 4 3 3 8 9 8 8 8 7 8 8
7 6 5 5 5 5 4 5 4 4 5 3 4 4 4 4 3 5 9 8 7 7 7 6 5 5 5 5 6 6 3 3 3 3 5 9 8 9 8 8 7 7 8
7 6 5 5 4 4 3 3 2 2 3 4 4 3 3 3 3 4 4 6 6 6 4 5 5 3 2 2 1 2 2 2 2 3 6 8 8 8 8 8 7 7 8
6 6 5 5 4 2 2 2 2 2 2 2 3 2 3 2 2 3 2 2 3 3 3 2 2 2 2 2 2 2 2 2 2 2 5 8 7 7 7 7 7 8 8
6 6 5 4 3 3 2 0 2 2 2 3 2 2 2 2 2 2 2 1 1 2 3 3 2 2 2 2 2 2 2 3 2 2 4 8 8 7 7 7 7 8 8
5 5 5 4 4 3 2 1 1 1 2 1 2 3 1 1 2 2 2 2 2 2 2 2 2 2 1 1 1 1 2 2 3 3 3 6 9 7 7 7 7 7 8
5 5 4 4 4 3 2 2 1 1 2 2 2 3 2 2 2 1 2 2 2 2 2 2 2 2 2 2 2 1 1 0 1 2 2 2 4 8 8 7 7 7 7
5 5 4 3 4 4 2 1 0 1 1 2 2 2 2 2 2 1 2 2 2 2 2 2 2 1 1 1 1 1 1 1 2 2 2 2 2 2 6 7 6 6 7
6 6 5 4 4 3 3 2 1 1 1 1 2 2 2 2 2 2 1 2 2 2 2 2 2 1 1 1 1 1 1 1 2 2 1 1 1 1 2 5 6 5 6
7 6 5 5 4 3 3 2 2 2 1 1 2 2 2 2 2 1 2 2 2 2 1 1 1 1 0 0 0 1 0 1 1 1 2 2 1 2 1 1 3 4 5
8 7 6 5 5 3 2 2 2 2 2 2 2 2 2 1 2 0 1 2 1 1 1 2 1 2 2 1 1 1 2 2 2 2 1 1 2 2 1 1 1 1 3
9 8 7 6 5 5 3 2 2 1 1 1 1 2 1 1 1 1 1 1 1 1 2 1 1 1 1 1 1 2 2 3 2 2 2 2 1 1 2 2 1 1 1
9 9 7 6 5 5 4 3 3 2 2 2 2 2 1 1 1 0 1 1 1 1 1 1 1 2 1 1 1 2 2 1 1 2 3 2 2 1 1 1 2 2 1
10 9 8 7 6 5 5 4 4 3 2 2 2 2 2 2 2 2 1 1 1 1 1 2 1 2 2 2 1 2 3 3 2 1 2 2 3 2 2 1 1 2 2
10 9 9 8 7 6 6 5 5 3 2 2 2 3 2 2 2 2 2 1 1 1 1 1 0 2 2 2 2 2 2 3 4 3 1 2 2 2 2 2 1 1 1
10 10 9 9 8 7 7 6 5 4 3 2 3 3 3 3 3 3 2 2 2 1 1 1 1 2 1 2 3 2 2 2 2 2 2 2 2 1 2 1 1 1 1
Wind_Direction
63 67 72 64 68 74 84 89 96 99 97 98 99 99 102 107 109 110 112 114 116 118 120 122 123 124 125 126 124 122 121 122 123 124 126 127 127 127 129 134 142 129 124
74 80 88 74 76 76 82 90 97 100 100 99 97 97 99 104 108 109 111 113 115 117 118 120 122 124 125 126 124 123 121 122 124 127 130 131 130 129 131 132 122 118 131
85 92 101 84 83 82 83 89 94 98 100 100 99 97 99 102 107 109 109 110 111 115 117 120 123 124 126 126 125 124 122 123 123 131 147 138 129 130 131 127 121 128 132
90 92 86 88 88 86 86 89 90 96 98 100 100 100 100 101 105 105 105 106 108 111 116 122 125 127 127 126 126 128 128 127 129 150 148 126 128 129 136 134 132 134 134
94 91 94 96 95 91 91 91 92 94 97 100 102 104 106 105 102 102 104 105 107 110 117 124 128 128 127 126 127 129 130 131 144 162 118 117 118 129 140 139 137 137 138
103 102 100 99 98 93 94 96 97 99 101 101 102 104 104 104 104 104 105 106 107 108 114 122 127 127 128 130 131 133 135 146 170 133 125 131 125 131 142 140 144 144 142
99 98 104 100 99 97 97 99 98 101 103 102 102 103 104 104 104 105 105 107 109 111 113 121 125 128 132 134 136 136 141 163 157 128 132 131 119 132 142 144 145 146 148
99 102 108 113 106 102 98 97 95 99 102 104 105 105 104 104 103 102 104 105 107 111 112 116 123 129 133 137 137 135 147 188 148 135 133 128 124 143 151 152 153 155 159
97 100 105 119 122 120 108 100 99 101 105 108 108 109 110 109 108 106 105 103 102 103 109 116 121 124 129 132 135 138 153 200 168 132 137 126 132 151 161 164 166 166 167
98 100 104 101 104 117 118 114 108 110 112 113 114 115 121 126 123 121 119 105 101 100 103 111 117 118 120 128 140 149 172 203 167 147 144 129 143 160 167 167 169 175 179
108 105 104 104 107 105 106 115 125 130 127 141 134 138 155 131 122 129 100 101 104 104 103 107 118 132 146 148 155 172 201 195 151 145 133 127 155 170 173 176 181 187 190
115 109 107 106 106 106 103 112 117 122 120 113 101 119 121 113 110 113 114 117 115 114 116 116 125 161 194 161 161 191 191 173 169 159 134 142 167 179 179 182 186 190 189
120 117 120 110 105 105 113 114 104 110 114 118 108 114 116 129 133 133 130 143 141 150 140 143 173 170 146 119 144 165 161 194 177 157 139 154 172 184 185 187 186 187 189
123 125 121 118 115 97 75 101 126 118 120 113 119 141 124 116 119 108 122 127 142 133 127 137 136 131 134 144 156 169 189 210 187 155 136 157 175 188 192 193 194 197 198
135 132 125 124 122 121 115 170 110 122 134 123 120 115 125 133 119 117 115 117 125 126 144 149 143 134 154 161 174 183 197 208 198 188 147 163 179 190 198 202 203 204 205
148 142 137 144 140 143 150 154 121 148 160 142 128 118 148 119 114 137 141 139 133 140 128 147 150 156 172 160 176 187 228 207 182 194 185 170 173 184 198 209 214 214 211
160 155 155 162 151 157 167 175 159 183 150 144 132 138 155 138 128 162 139 157 131 131 141 166 151 166 176 181 180 174 182 185 166 192 190 190 177 180 193 208 216 221 218
167 162 173 173 152 161 161 174 103 94 120 135 133 133 140 136 159 193 159 135 140 158 155 158 175 177 153 181 171 166 146 156 159 187 195 185 199 190 184 191 206 217 222
176 173 175 177 167 167 161 158 130 97 91 119 131 130 134 151 161 184 145 120 172 158 159 180 135 164 143 175 163 160 168 158 162 172 177 186 177 203 202 156 174 199 220
179 177 177 177 175 177 166 162 150 121 132 133 123 111 125 142 147 172 152 149 181 147 150 116 119 132 229 235 228 93 119 151 158 156 188 157 158 189 194 165 181 185 197
179 180 184 190 178 184 177 182 166 154 154 129 127 122 140 123 121 194 128 136 195 148 158 169 177 183 202 183 211 186 171 170 145 155 159 159 149 159 152 156 217 228 173
182 184 185 190 188 193 176 175 174 159 158 140 112 112 136 133 143 152 125 183 169 161 178 180 196 257 204 180 280 261 207 167 176 159 160 166 158 170 182 173 168 214 266
184 187 186 186 189 197 187 182 170 172 186 156 154 154 155 157 158 99 168 210 169 216 161 195 211 238 267 236 269 292 300 318 154 159 176 168 179 204 218 185 177 178 204
187 185 186 186 188 190 193 196 189 187 183 174 180 149 155 157 159 155 161 169 204 200 150 219 178 249 255 256 216 251 284 323 290 196 186 175 184 196 221 237 188 174 191
189 185 184 184 186 188 195 193 202 199 196 172 173 149 180 156 169 169 167 166 182 202 159 266 230 271 263 274 267 245 243 235 249 262 242 205 196 193 198 227 241 231 210
188 188 185 183 187 190 196 197 203 199 204 190 186 172 187 170 175 171 178 179 191 176 175 230 236 215 280 281 279 271 264 263 259 257 255 241 239 205 186 210 239 231 225